When you browse on this site, cookies collect data to enhance your experience and personalize the content and advertising you see.
Visit our Privacy Policy to learn more. By continuing to use the site, you agree to this use of cookies and data.
  • In United Kingdom
  • List of Countries
  • For 7 days
  • Water Temperature
  • Weather Map
  • Weather Widgets
  • user-avatar
    Login

    Hourly Weather Lajosmizse

    Today, 28 January, Tuesday

    Time Temperature Precipitation Wind Pressure Humidity
    00:00 -1°C° 0 mm 2 mps 749 mmHg 77%
    01:00 -1°C° 0 mm 2 mps 749 mmHg 81%
    02:00 -1°C° 0 mm 2 mps 748 mmHg 84%
    03:00 -1°C° 0 mm 3 mps 748 mmHg 87%
    04:00 -1°C° 0 mm 3 mps 747 mmHg 89%
    05:00 -2°C° 0 mm 4 mps 747 mmHg 90%
    06:00 -2°C° 0 mm 5 mps 746 mmHg 91%
    07:00 -2°C° 0 mm 5 mps 746 mmHg 86%
    08:00 -1°C° 0.7 mm 5 mps 746 mmHg 87%
    09:00 0°C° 0.7 mm 5 mps 745 mmHg 88%
    10:00 +1°C° 0.7 mm 6 mps 745 mmHg 89%
    11:00 +2°C° 0.1 mm 5 mps 744 mmHg 86%
    12:00 +3°C° 0.1 mm 5 mps 744 mmHg 84%
    13:00 +4°C° 0 mm 3 mps 743 mmHg 85%
    14:00 +4°C° 0 mm 3 mps 742 mmHg 85%
    15:00 +4°C° 0 mm 3 mps 742 mmHg 86%
    16:00 +4°C° 0 mm 4 mps 741 mmHg 86%
    17:00 +5°C° 0.4 mm 4 mps 741 mmHg 85%
    18:00 +6°C° 0.4 mm 5 mps 740 mmHg 84%
    19:00 +5°C° 0.4 mm 6 mps 740 mmHg 83%
    20:00 +5°C° 2.9 mm 5 mps 740 mmHg 86%
    21:00 +4°C° 2.9 mm 4 mps 740 mmHg 89%
    22:00 +1°C° 2.9 mm 4 mps 740 mmHg 91%
    23:00 +1°C° 0.3 mm 4 mps 740 mmHg 89%

    Tomorrow, 29 January, Wednesday

    Time Temperature Precipitation Wind Pressure Humidity
    00:00 +1°C° 0.3 mm 5 mps 741 mmHg 87%
    01:00 +1°C° 0.3 mm 5 mps 742 mmHg 84%
    02:00 +1°C° 0 mm 5 mps 742 mmHg 82%
    03:00 +1°C° 0 mm 5 mps 742 mmHg 79%
    04:00 +1°C° 0 mm 5 mps 743 mmHg 76%
    05:00 0°C° 0 mm 5 mps 743 mmHg 78%
    06:00 0°C° 0 mm 4 mps 744 mmHg 80%
    07:00 -1°C° 0 mm 4 mps 744 mmHg 81%
    08:00 0°C° 0 mm 4 mps 744 mmHg 81%
    09:00 +1°C° 0 mm 4 mps 744 mmHg 81%
    10:00 +2°C° 0 mm 5 mps 744 mmHg 80%
    11:00 +3°C° 0 mm 5 mps 745 mmHg 76%
    12:00 +5°C° 0 mm 5 mps 745 mmHg 71%
    13:00 +5°C° 0 mm 5 mps 745 mmHg 66%
    14:00 +5°C° 0.4 mm 5 mps 745 mmHg 70%
    15:00 +4°C° 0.4 mm 4 mps 745 mmHg 75%
    16:00 +4°C° 0.4 mm 4 mps 745 mmHg 79%
    17:00 +3°C° 0 mm 3 mps 745 mmHg 80%
    18:00 +2°C° 0 mm 3 mps 746 mmHg 82%
    19:00 +1°C° 0 mm 3 mps 746 mmHg 83%
    20:00 +1°C° 0 mm 3 mps 747 mmHg 80%
    21:00 +1°C° 0 mm 3 mps 747 mmHg 77%
    22:00 +1°C° 0 mm 3 mps 747 mmHg 74%
    23:00 0°C° 0 mm 4 mps 747 mmHg 77%

    Day after tomorrow, 30 January, Thursday

    Time Temperature Precipitation Wind Pressure Humidity
    00:00 0°C° 0 mm 5 mps 748 mmHg 81%
    01:00 -1°C° 0 mm 6 mps 748 mmHg 84%
    02:00 0°C° 0 mm 5 mps 749 mmHg 84%
    03:00 -1°C° 0 mm 5 mps 749 mmHg 83%
    04:00 -1°C° 0 mm 4 mps 749 mmHg 83%
    05:00 -1°C° 0 mm 4 mps 750 mmHg 82%
    06:00 -2°C° 0 mm 4 mps 750 mmHg 81%
    07:00 -2°C° 0 mm 4 mps 750 mmHg 81%
    08:00 -1°C° 0 mm 5 mps 750 mmHg 76%
    09:00 0°C° 0 mm 5 mps 751 mmHg 71%
    10:00 +1°C° 0 mm 5 mps 751 mmHg 67%
    11:00 +2°C° 0 mm 5 mps 751 mmHg 66%
    12:00 +3°C° 0 mm 4 mps 751 mmHg 66%
    13:00 +4°C° 0 mm 4 mps 750 mmHg 65%
    14:00 +4°C° 0 mm 4 mps 750 mmHg 65%
    15:00 +4°C° 0 mm 4 mps 750 mmHg 66%
    16:00 +4°C° 0 mm 4 mps 749 mmHg 66%
    17:00 +4°C° 0 mm 3 mps 749 mmHg 67%
    18:00 +3°C° 0 mm 3 mps 749 mmHg 69%
    19:00 +3°C° 0 mm 3 mps 749 mmHg 71%
    20:00 +2°C° 0 mm 3 mps 749 mmHg 73%
    21:00 +1°C° 0 mm 4 mps 748 mmHg 75%
    22:00 +1°C° 0 mm 4 mps 748 mmHg 77%
    23:00 +1°C° 0 mm 4 mps 748 mmHg 79%

    31 January, Friday

    Time Temperature Precipitation Wind Pressure Humidity
    00:00 +1°C° 0 mm 4 mps 747 mmHg 82%
    01:00 +1°C° 0 mm 4 mps 747 mmHg 84%
    02:00 +1°C° 0 mm 4 mps 747 mmHg 85%
    03:00 +3°C° 0 mm 4 mps 746 mmHg 85%
    04:00 +2°C° 0 mm 5 mps 746 mmHg 85%
    05:00 +3°C° 0 mm 6 mps 746 mmHg 84%
    06:00 +4°C° 0 mm 6 mps 746 mmHg 82%
    07:00 +4°C° 0 mm 7 mps 746 mmHg 81%
    08:00 +5°C° 0 mm 7 mps 745 mmHg 77%
    09:00 +5°C° 0 mm 7 mps 745 mmHg 73%
    10:00 +5°C° 0 mm 8 mps 745 mmHg 69%
    11:00 +6°C° 0 mm 8 mps 745 mmHg 67%
    12:00 +7°C° 0 mm 8 mps 746 mmHg 64%
    13:00 +8°C° 0 mm 9 mps 746 mmHg 62%
    14:00 +9°C° 0 mm 8 mps 746 mmHg 65%
    15:00 +8°C° 0 mm 7 mps 746 mmHg 68%
    16:00 +8°C° 0 mm 7 mps 746 mmHg 71%
    17:00 +8°C° 0 mm 6 mps 747 mmHg 74%
    18:00 +8°C° 0 mm 6 mps 747 mmHg 76%
    19:00 +8°C° 0 mm 5 mps 748 mmHg 79%
    20:00 +7°C° 0 mm 5 mps 748 mmHg 81%
    21:00 +7°C° 0 mm 4 mps 748 mmHg 83%
    22:00 +6°C° 0 mm 4 mps 749 mmHg 85%
    23:00 +6°C° 0 mm 4 mps 749 mmHg 84%

    1 February, Saturday

    Time Temperature Precipitation Wind Pressure Humidity
    00:00 +6°C° 0 mm 4 mps 749 mmHg 83%
    01:00 +5°C° 0 mm 4 mps 749 mmHg 82%
    02:00 +5°C° 0 mm 4 mps 749 mmHg 82%
    03:00 +5°C° 0 mm 4 mps 749 mmHg 82%
    04:00 +5°C° 0 mm 4 mps 749 mmHg 81%
    05:00 +5°C° 0 mm 4 mps 749 mmHg 81%
    06:00 +5°C° 0 mm 3 mps 749 mmHg 82%
    07:00 +5°C° 0 mm 3 mps 749 mmHg 82%
    08:00 +6°C° 0 mm 4 mps 749 mmHg 80%
    09:00 +7°C° 0 mm 4 mps 749 mmHg 78%
    10:00 +8°C° 0 mm 4 mps 749 mmHg 76%
    11:00 +9°C° 0 mm 5 mps 749 mmHg 72%
    12:00 +11°C° 0 mm 6 mps 748 mmHg 69%
    13:00 +13°C° 0 mm 6 mps 748 mmHg 65%
    14:00 +13°C° 0 mm 6 mps 748 mmHg 67%
    15:00 +12°C° 0 mm 5 mps 747 mmHg 69%
    16:00 +12°C° 0 mm 4 mps 747 mmHg 72%
    17:00 +11°C° 0 mm 4 mps 747 mmHg 75%
    18:00 +9°C° 0 mm 5 mps 746 mmHg 79%
    19:00 +8°C° 0 mm 5 mps 746 mmHg 82%
    20:00 +8°C° 0 mm 5 mps 746 mmHg 82%
    21:00 +8°C° 0 mm 5 mps 746 mmHg 83%
    22:00 +8°C° 0 mm 5 mps 745 mmHg 83%
    23:00 +9°C° 0.3 mm 5 mps 745 mmHg 80%

    2 February, Sunday

    Time Temperature Precipitation Wind Pressure Humidity
    00:00 +9°C° 0.3 mm 5 mps 745 mmHg 77%
    01:00 +9°C° 0.3 mm 5 mps 745 mmHg 73%
    02:00 +9°C° 0 mm 7 mps 746 mmHg 70%
    03:00 +7°C° 0 mm 8 mps 746 mmHg 66%
    04:00 +7°C° 0 mm 10 mps 746 mmHg 62%
    05:00 +6°C° 0 mm 10 mps 747 mmHg 64%
    06:00 +4°C° 0 mm 11 mps 748 mmHg 65%
    07:00 +3°C° 0 mm 11 mps 748 mmHg 67%
    08:00 +4°C° 0 mm 11 mps 749 mmHg 64%
    09:00 +4°C° 0 mm 11 mps 750 mmHg 60%
    10:00 +6°C° 0 mm 10 mps 751 mmHg 57%
    11:00 +6°C° 0 mm 10 mps 751 mmHg 55%
    12:00 +7°C° 0 mm 9 mps 751 mmHg 53%
    13:00 +7°C° 0 mm 9 mps 751 mmHg 52%
    14:00 +8°C° 0 mm 7 mps 752 mmHg 54%
    15:00 +8°C° 0 mm 6 mps 752 mmHg 56%
    16:00 +7°C° 0 mm 4 mps 752 mmHg 58%
    17:00 +7°C° 0 mm 4 mps 752 mmHg 61%
    18:00 +6°C° 0 mm 4 mps 752 mmHg 64%
    19:00 +5°C° 0 mm 3 mps 752 mmHg 66%
    20:00 +5°C° 0 mm 4 mps 753 mmHg 67%
    21:00 +5°C° 0 mm 4 mps 753 mmHg 67%
    22:00 +5°C° 0 mm 4 mps 753 mmHg 68%
    23:00 +5°C° 0.2 mm 4 mps 753 mmHg 73%
    Show more